Wind_Speed
64 68 74 77 68 70 70 62 57 53 54 47 43 39 41 51 50 55 51 43 46 43 41 36 31 27 24 20 14 8 3 3 9 16 23 28 33 38 40 40 43 47 49 52 52 54 55
60 64 68 73 76 69 70 69 67 62 62 64 69 71 70 64 59 52 50 50 48 46 44 41 36 32 27 19 15 10 10 13 18 23 26 28 34 38 41 43 45 48 51 52 52 53 54
55 58 62 66 70 71 71 68 68 68 66 64 64 64 64 62 59 53 52 48 44 43 41 39 38 35 31 26 23 20 20 22 25 28 31 33 37 40 41 44 46 48 51 52 53 55 56
48 52 55 58 63 66 66 67 68 68 66 66 64 63 63 60 56 53 51 49 48 48 44 42 39 37 32 28 26 26 30 33 43 43 45 42 37 34 37 44 48 50 52 54 55 55 56
41 45 48 51 53 57 60 61 61 62 64 64 63 63 62 61 59 58 55 51 48 46 45 42 38 35 31 31 31 34 32 35 39 35 37 33 31 27 28 34 39 47 49 51 52 54 56
34 37 42 44 46 49 51 55 55 55 55 56 56 56 55 53 52 51 49 48 47 46 43 41 38 34 33 32 30 29 28 32 36 36 23 21 27 30 30 33 34 37 40 42 46 47 49
26 31 33 37 40 42 44 45 47 50 50 49 48 48 47 47 46 45 44 41 38 36 34 31 29 27 26 27 27 28 27 29 37 40 23 17 23 28 34 36 33 29 33 38 38 37 45
22 23 27 29 33 36 38 39 40 40 41 42 43 42 40 39 38 37 35 32 30 28 25 24 23 22 22 23 25 27 30 32 38 43 37 24 21 25 28 31 30 23 23 27 31 34 38
28 23 19 23 26 28 31 33 34 35 35 35 35 35 34 34 32 30 29 27 25 24 22 21 20 20 20 21 23 27 30 34 37 43 45 35 26 25 24 28 22 17 16 18 21 29 32
29 26 25 18 18 21 23 25 27 29 30 30 30 29 29 28 27 26 24 22 21 20 20 20 19 19 19 20 22 25 29 33 37 41 46 47 37 30 28 27 26 11 4 5 11 17 23
33 31 25 24 22 17 18 19 21 22 24 25 25 25 25 25 24 23 22 21 22 20 21 21 21 22 22 22 23 25 27 31 35 39 44 47 47 40 36 33 33 28 19 9 3 1 10
33 33 31 25 22 22 20 18 18 18 19 20 20 20 21 21 22 22 22 22 20 21 22 22 23 23 24 25 25 26 27 29 32 37 40 45 49 50 47 38 33 32 30 26 21 15 11
29 31 34 35 28 23 22 21 20 18 18 17 18 18 18 18 18 19 20 20 20 22 22 22 22 23 24 25 27 29 29 28 29 32 36 39 42 46 49 46 39 32 30 28 24 17 12
22 29 31 35 37 34 26 22 21 20 18 17 17 17 18 19 19 20 20 21 22 21 21 20 21 24 25 25 26 28 29 30 29 29 32 35 36 40 43 44 46 44 34 29 22 15 10
21 24 27 31 30 38 36 29 22 21 19 16 15 16 17 18 19 19 19 19 20 19 21 22 22 21 21 23 25 25 26 28 29 29 29 30 31 33 36 37 38 38 38 39 30 21 15
22 22 25 26 32 32 37 36 32 24 22 20 17 15 15 15 15 16 17 18 19 19 20 20 20 21 22 23 24 23 24 25 26 27 28 27 28 29 29 31 31 31 31 30 29 27 25
28 29 27 26 32 27 34 34 35 33 25 20 21 20 16 14 13 15 14 14 16 17 18 18 18 19 20 22 22 22 24 25 25 24 25 25 25 25 25 26 25 26 27 27 27 28 27
29 31 32 29 29 29 32 34 37 35 33 27 24 24 23 18 15 16 16 15 16 16 16 17 17 18 17 18 21 22 22 24 26 26 23 23 21 22 22 21 21 22 22 22 24 26 28
33 34 37 36 33 33 32 33 40 39 34 34 30 30 29 25 21 16 18 18 16 17 16 16 18 18 19 18 18 19 20 20 20 23 25 25 22 19 19 21 21 20 20 19 20 23 26
40 38 38 37 36 35 32 29 37 36 35 34 33 34 32 32 30 26 21 20 20 18 18 18 18 17 17 18 20 21 18 19 20 19 21 24 26 23 20 18 19 20 21 19 18 18 21
44 43 42 42 40 36 38 34 36 37 32 34 35 34 36 35 34 34 29 27 25 23 22 23 21 23 19 18 15 17 20 19 20 19 19 19 21 23 27 19 18 18 18 19 20 18 17
49 48 47 47 46 40 38 35 37 37 35 35 38 36 36 38 37 36 35 32 30 27 27 27 29 26 27 29 24 21 19 21 20 20 21 21 19 18 22 22 19 17 20 19 20 19 18
54 52 52 50 49 46 42 38 38 38 39 40 43 44 36 37 38 40 40 39 37 36 30 31 32 30 35 31 28 28 27 23 20 22 23 22 22 19 17 17 19 20 21 20 20 21 18
57 56 56 56 53 50 48 44 43 42 43 47 50 43 43 41 42 42 41 42 43 41 39 35 37 38 35 35 36 37 33 30 27 23 24 25 24 23 21 19 16 23 24 23 21 23 20
63 61 61 60 59 56 52 48 45 42 42 45 48 45 41 43 46 44 44 43 44 44 44 41 42 41 41 40 40 39 38 37 34 30 26 27 27 27 26 25 19 17 23 26 22 24 23
69 68 67 67 63 59 59 58 54 49 46 47 48 47 47 44 43 46 45 47 47 47 47 45 47 48 48 46 45 45 43 44 46 41 32 31 30 28 27 26 25 29 24 25 28 24 24
77 74 72 70 69 66 65 65 62 55 53 48 48 49 49 49 45 46 46 48 50 49 49 48 50 52 50 51 54 52 52 51 52 46 41 37 36 30 28 29 26 30 34 29 30 25 21
78 76 75 73 72 69 66 64 65 60 55 58 52 53 53 51 48 49 49 50 51 53 55 55 57 57 55 56 58 57 59 59 57 53 46 45 40 40 34 33 33 35 40 35 32 30 23
83 81 78 72 70 71 71 65 64 66 62 61 60 59 60 56 52 53 53 55 55 58 58 60 60 62 64 65 66 65 62 62 62 61 52 50 42 43 40 38 35 40 40 43 39 31 29
Wind_Direction
36 38 37 36 41 43 42 47 53 59 70 76 85 92 105 118 115 112 108 107 103 102 104 105 102 101 104 103 112 110 106 281 275 270 269 266 261 258 254 252 251 248 249 252 253 251 249
38 38 41 41 40 47 50 48 54 59 65 74 86 92 96 103 111 105 97 97 100 101 103 103 101 99 96 93 93 74 44 15 352 327 312 287 273 268 264 259 255 254 253 250 249 247 247
40 40 42 44 43 46 51 53 56 58 65 68 72 80 84 90 93 95 97 95 97 100 96 92 89 88 81 79 72 58 38 15 347 316 309 303 294 286 277 270 265 260 255 251 250 249 248
40 43 43 44 47 47 50 56 59 62 66 71 73 74 78 81 83 84 85 88 90 90 90 88 84 79 75 67 57 48 33 18 5 337 322 317 306 289 272 266 262 261 258 256 254 251 249
40 41 45 45 46 48 52 53 57 60 63 66 71 78 82 85 87 89 90 90 89 88 85 82 78 73 66 57 47 39 31 21 11 348 325 319 309 298 282 271 268 266 262 258 255 254 253
39 41 41 45 46 47 48 51 54 57 59 61 64 67 70 72 76 80 81 80 80 78 76 72 67 62 58 53 46 38 28 20 14 8 340 328 312 310 303 294 285 274 266 262 256 251 252
33 35 40 40 43 45 47 48 50 52 54 57 59 62 63 65 67 68 70 72 73 75 75 74 71 66 59 50 42 34 27 21 17 17 6 338 317 314 310 309 300 283 268 258 255 252 244
28 29 30 37 38 41 42 44 46 48 50 51 54 57 58 61 61 63 64 64 63 64 65 59 56 51 45 40 34 29 23 21 21 22 18 2 338 326 327 323 310 293 272 259 253 251 249
27 25 23 25 30 32 37 38 39 42 44 47 49 50 52 54 55 55 56 57 54 52 50 45 40 34 28 26 21 20 20 21 23 25 25 19 3 351 351 354 334 296 278 260 250 248 245
27 26 23 16 17 20 24 30 33 35 38 41 44 46 48 50 51 50 48 46 44 42 39 35 30 25 18 14 13 13 16 19 22 25 27 28 22 14 11 13 19 8 312 268 246 239 228
27 26 23 20 17 6 4 11 16 23 27 31 33 37 40 41 44 44 43 40 37 34 34 28 24 18 17 14 10 9 11 16 19 26 28 30 32 27 25 26 31 44 47 36 359 200 188
17 21 20 16 18 14 11 360 354 358 6 11 16 20 24 27 29 31 30 30 29 27 26 24 23 21 18 15 12 9 10 12 16 20 28 31 35 36 35 32 37 42 54 63 72 90 116
6 11 16 15 12 7 11 8 2 356 347 348 353 356 359 2 6 10 12 12 13 12 12 13 15 14 13 13 13 13 13 13 13 17 23 30 35 38 41 42 40 42 50 61 74 86 97
11 9 10 7 6 6 0 1 3 356 354 352 350 351 349 347 350 349 351 354 353 357 355 359 2 1 4 6 5 7 10 14 13 15 21 25 33 38 41 45 48 48 46 50 59 64 64
353 7 360 355 2 0 356 352 349 350 351 348 354 352 360 357 354 356 356 357 354 354 354 353 355 358 358 359 1 4 7 8 12 14 15 20 26 33 39 42 44 47 50 51 50 49 40
338 338 348 353 356 352 351 344 346 343 342 348 342 347 352 357 356 2 2 359 0 1 3 3 1 0 3 5 4 2 4 6 7 11 12 13 16 21 28 35 39 41 42 42 44 43 43
323 327 336 339 350 344 348 345 337 339 338 337 342 340 335 344 344 345 352 358 355 358 356 359 0 0 360 359 1 2 2 3 5 7 8 10 11 12 15 21 28 33 35 38 37 34 31
313 317 321 330 336 345 344 344 337 332 330 326 324 331 332 331 331 329 330 338 343 345 349 345 348 353 359 1 357 0 3 4 3 2 3 4 9 7 5 6 11 19 24 25 26 26 26
305 311 315 321 327 331 339 336 334 326 318 325 322 322 323 322 322 320 324 322 328 333 334 337 341 341 342 347 355 357 357 1 5 5 1 358 359 359 2 359 356 359 4 12 14 14 15
297 302 306 311 316 320 326 330 330 323 314 308 317 317 317 317 317 320 322 316 321 325 325 332 331 337 334 337 339 346 347 348 353 359 5 3 356 348 349 350 353 349 347 348 356 4 6
291 295 298 303 307 313 314 316 319 323 317 313 309 311 307 309 308 311 315 317 320 325 325 326 330 330 329 328 327 329 331 336 333 338 346 356 356 354 343 346 344 337 338 338 337 342 354
288 291 295 298 301 305 307 305 311 311 303 314 308 300 308 305 302 306 306 309 313 316 321 321 320 325 322 329 330 332 330 329 327 328 327 332 342 346 342 344 340 328 328 332 331 332 334
287 289 291 292 295 299 301 300 303 304 304 301 315 304 295 305 299 297 303 304 306 308 310 311 312 315 316 321 322 325 328 327 326 325 327 323 326 330 333 335 337 331 327 332 327 324 329
284 287 289 291 293 294 296 296 297 299 299 301 299 305 293 294 297 296 294 295 299 299 303 306 305 308 309 314 315 316 319 320 320 322 322 324 318 322 320 314 322 319 324 329 332 326 325
283 285 286 287 289 290 292 293 290 288 288 289 296 294 289 286 289 292 290 291 291 294 298 303 302 304 306 307 308 309 311 311 311 316 316 313 314 314 311 309 315 310 309 312 312 315 321
281 282 282 285 285 287 287 289 290 284 280 280 281 282 287 284 280 283 286 290 291 291 291 295 297 299 301 302 304 305 306 305 307 308 312 312 312 312 308 310 308 308 302 298 306 299 307
277 279 281 282 283 284 286 285 284 282 279 280 275 276 275 279 278 278 280 283 286 287 288 289 289 289 292 293 295 298 298 299 300 303 307 306 308 308 294 307 308 299 295 293 293 294 296
278 279 282 283 283 280 279 279 278 276 276 277 274 268 273 270 271 274 277 278 280 282 283 283 283 286 288 289 290 291 291 292 293 296 300 301 302 304 298 298 299 292 292 290 288 286 281
272 274 277 279 281 282 282 278 274 271 273 272 275 274 270 267 269 272 271 270 276 277 281 280 282 285 285 283 284 284 285 283 285 289 292 293 292 294 296 297 295 289 288 289 292 284 279
Height
5794 5782 5769 5753 5735 5719 5705 5687 5673 5664 5655 5648 5646 5645 5649 5653 5662 5670 5677 5683 5693 5703 5712 5722 5728 5734 5737 5742 5748 5751 5752 5752 5751 5749 5746 5742 5739 5735 5733 5732 5731 5730 5731 5732 5733 5734 5736
5800 5790 5779 5767 5753 5737 5723 5711 5695 5685 5679 5671 5665 5662 5664 5670 5677 5683 5689 5695 5702 5709 5718 5724 5730 5734 5741 5748 5749 5752 5752 5752 5749 5744 5740 5736 5731 5728 5724 5721 5720 5719 5717 5717 5719 5721 5722
5807 5798 5789 5778 5769 5756 5742 5730 5720 5708 5699 5697 5690 5685 5685 5686 5690 5697 5702 5707 5715 5722 5727 5732 5737 5742 5747 5751 5752 5753 5751 5749 5745 5738 5733 5727 5722 5717 5713 5709 5708 5705 5705 5705 5706 5708 5710
5814 5806 5798 5790 5781 5772 5762 5751 5742 5733 5724 5715 5712 5712 5709 5710 5713 5717 5720 5722 5727 5731 5736 5740 5745 5748 5751 5752 5752 5751 5746 5742 5735 5723 5719 5713 5709 5703 5699 5696 5692 5691 5692 5692 5692 5695 5697
5820 5814 5806 5799 5792 5785 5777 5770 5762 5754 5749 5742 5737 5732 5730 5729 5729 5730 5732 5736 5740 5743 5745 5747 5750 5751 5753 5751 5749 5745 5746 5743 5738 5726 5715 5705 5697 5692 5687 5683 5680 5674 5676 5674 5677 5681 5684
5826 5821 5815 5807 5802 5796 5789 5782 5777 5771 5766 5761 5757 5753 5750 5749 5747 5745 5746 5749 5749 5749 5750 5750 5752 5755 5755 5755 5753 5752 5748 5745 5738 5724 5711 5701 5692 5683 5678 5673 5669 5664 5662 5660 5662 5670 5670
5830 5826 5821 5816 5810 5805 5799 5794 5788 5783 5779 5775 5771 5768 5766 5764 5762 5761 5759 5758 5760 5761 5760 5760 5760 5759 5757 5756 5754 5751 5749 5744 5734 5723 5709 5698 5688 5679 5672 5662 5656 5651 5648 5648 5651 5654 5656
5834 5830 5826 5822 5817 5812 5808 5803 5799 5794 5790 5786 5782 5779 5776 5775 5773 5772 5770 5770 5770 5769 5767 5766 5765 5763 5761 5758 5755 5752 5746 5740 5730 5719 5705 5694 5684 5676 5667 5656 5646 5641 5639 5640 5644 5646 5647
5837 5833 5829 5826 5822 5818 5814 5810 5806 5802 5798 5795 5792 5789 5786 5784 5782 5780 5778 5777 5776 5775 5773 5771 5768 5766 5764 5761 5757 5751 5745 5737 5728 5716 5704 5692 5682 5672 5664 5653 5641 5635 5634 5633 5636 5637 5642
5840 5836 5831 5828 5826 5822 5819 5815 5811 5808 5805 5802 5799 5796 5793 5790 5789 5786 5784 5782 5780 5778 5776 5774 5771 5768 5764 5759 5756 5750 5744 5737 5727 5717 5705 5694 5682 5672 5662 5653 5642 5633 5632 5631 5632 5634 5638
5841 5838 5834 5830 5827 5824 5822 5819 5816 5813 5810 5807 5804 5800 5797 5794 5792 5789 5787 5784 5782 5780 5778 5775 5771 5767 5763 5760 5755 5749 5744 5737 5728 5718 5709 5699 5685 5675 5666 5656 5647 5640 5635 5633 5634 5636 5643
5842 5839 5835 5832 5829 5825 5822 5820 5818 5815 5812 5809 5806 5804 5801 5798 5795 5792 5789 5786 5784 5783 5778 5775 5771 5767 5763 5759 5754 5749 5743 5737 5730 5722 5711 5701 5691 5681 5671 5663 5655 5650 5643 5641 5642 5646 5652
5843 5840 5836 5833 5829 5826 5824 5821 5818 5815 5813 5810 5807 5804 5802 5799 5797 5794 5790 5788 5786 5780 5778 5775 5771 5767 5762 5758 5754 5749 5743 5738 5732 5726 5716 5707 5697 5689 5681 5673 5666 5661 5656 5653 5654 5655 5660
5844 5839 5837 5833 5829 5826 5823 5821 5818 5815 5812 5809 5806 5803 5801 5798 5796 5793 5790 5788 5784 5780 5776 5773 5769 5766 5762 5758 5753 5748 5744 5738 5733 5727 5720 5713 5705 5696 5688 5683 5678 5672 5669 5665 5664 5664 5664
5843 5839 5835 5832 5828 5825 5821 5819 5817 5815 5811 5808 5805 5803 5800 5798 5794 5791 5790 5786 5782 5779 5775 5771 5767 5763 5760 5757 5752 5747 5742 5737 5733 5726 5722 5716 5710 5703 5696 5690 5686 5682 5678 5675 5672 5669 5668
5839 5836 5833 5829 5826 5824 5821 5816 5814 5812 5810 5808 5805 5802 5799 5797 5794 5791 5788 5785 5781 5777 5774 5770 5766 5761 5757 5754 5750 5745 5741 5737 5731 5727 5722 5718 5713 5708 5702 5696 5692 5687 5685 5682 5679 5676 5672
5833 5832 5830 5827 5824 5820 5818 5815 5810 5808 5807 5805 5803 5800 5798 5795 5792 5790 5787 5783 5780 5776 5773 5769 5765 5761 5757 5752 5747 5744 5740 5736 5732 5727 5722 5719 5715 5712 5706 5702 5696 5692 5689 5685 5682 5679 5676
5828 5825 5825 5824 5821 5817 5814 5811 5809 5804 5802 5801 5799 5798 5796 5792 5790 5788 5785 5782 5779 5775 5772 5768 5764 5760 5756 5752 5747 5742 5739 5734 5731 5727 5723 5718 5716 5712 5709 5704 5700 5696 5691 5688 5685 5682 5677
5822 5820 5818 5817 5816 5813 5810 5806 5804 5801 5798 5796 5794 5793 5790 5788 5786 5783 5780 5778 5775 5772 5769 5766 5763 5759 5755 5751 5747 5742 5738 5733 5729 5726 5723 5720 5716 5713 5710 5707 5703 5698 5694 5689 5686 5683 5680
5813 5813 5811 5810 5808 5807 5806 5802 5799 5797 5794 5791 5789 5788 5786 5783 5781 5779 5777 5774 5771 5768 5766 5763 5759 5757 5753 5750 5745 5742 5739 5734 5729 5725 5721 5718 5715 5712 5709 5705 5703 5699 5695 5691 5687 5683 5681
5804 5804 5803 5802 5800 5799 5798 5795 5793 5791 5788 5785 5783 5781 5779 5778 5775 5772 5771 5767 5766 5765 5763 5759 5757 5753 5750 5747 5744 5741 5736 5734 5730 5725 5720 5717 5714 5711 5707 5704 5700 5698 5695 5691 5688 5684 5681
5796 5795 5794 5793 5792 5791 5789 5788 5785 5784 5782 5780 5777 5774 5773 5770 5768 5767 5764 5763 5760 5758 5757 5755 5751 5749 5746 5744 5741 5738 5735 5731 5728 5725 5721 5717 5713 5709 5706 5703 5699 5696 5693 5690 5687 5683 5680
5785 5784 5784 5783 5782 5781 5780 5779 5778 5775 5773 5772 5770 5766 5763 5764 5760 5759 5757 5756 5754 5751 5750 5747 5744 5743 5738 5738 5735 5733 5731 5727 5724 5721 5718 5715 5711 5707 5704 5701 5699 5695 5691 5688 5685 5682 5679
5771 5771 5770 5771 5771 5770 5770 5768 5767 5766 5764 5761 5760 5759 5756 5753 5752 5750 5749 5747 5746 5744 5743 5741 5737 5735 5734 5731 5729 5727 5725 5722 5720 5718 5713 5710 5708 5704 5702 5698 5697 5694 5690 5686 5683 5678 5676
5754 5756 5755 5756 5756 5757 5756 5754 5753 5752 5752 5750 5748 5747 5746 5744 5741 5742 5739 5738 5736 5735 5734 5733 5730 5728 5725 5723 5721 5719 5718 5716 5713 5712 5710 5705 5702 5700 5696 5694 5694 5689 5686 5683 5681 5677 5673
5738 5738 5740 5738 5740 5740 5740 5740 5738 5737 5737 5736 5736 5733 5731 5731 5731 5729 5727 5727 5726 5725 5724 5722 5720 5717 5715 5713 5711 5708 5707 5705 5703 5703 5703 5701 5697 5696 5691 5688 5687 5683 5678 5675 5673 5672 5669
5718 5719 5720 5722 5721 5721 5722 5723 5723 5722 5721 5720 5721 5720 5718 5716 5718 5716 5716 5715 5713 5712 5712 5710 5708 5705 5704 5702 5700 5698 5697 5694 5691 5692 5692 5691 5689 5687 5683 5682 5682 5676 5671 5668 5665 5665 5662
5699 5700 5700 5700 5701 5702 5703 5704 5702 5703 5703 5704 5704 5703 5702 5702 5702 5702 5704 5703 5700 5700 5697 5697 5695 5692 5691 5689 5686 5685 5683 5682 5679 5679 5680 5678 5678 5677 5674 5673 5674 5668 5663 5660 5658 5654 5652
5680 5681 5681 5681 5681 5682 5683 5685 5686 5685 5684 5685 5686 5685 5681 5681 5688 5689 5688 5688 5689 5684 5683 5680 5680 5678 5674 5671 5669 5666 5667 5666 5666 5665 5667 5665 5666 5664 5665 5663 5662 5657 5653 5648 5646 5647 5645